Home > Weather > Halton Hills > Past weeks

Flag for Canada Weather for the Past 2 Weeks in Halton Hills, Ontario, Canada

Now
48 °F

Partly sunny.


Feels Like: 47 °F
Forecast: 38 / 59 °F
Wind: 3 mph from South

Location: Toronto Pearson International Airport

Current Time: May 2, 2016 at 9:59:23 PM

Latest Report: May 2, 2016 at 9:00 PM


Visibility: 15 mi

Pressure: 30.00 "Hg

Humidity: 66%

Dew Point: 37 °F

Location of Halton HillsLocation

Historic Weather in Halton Hills — Graph

°F

Halton Hills Temperature Yesterday

Maximum temperature yesterday: 52 °F (at 12:00 AM)
Minimum temperature yesterday: 45 °F (at 6:00 AM)
Average temperature yesterday: 47 °F

High & Low Weather Summary for the Past Weeks

 TemperatureHumidityPressure
High77 °F (Apr 18, 6:00 PM)94% (Apr 22, 12:00 AM)30.37 "Hg (Apr 22, 12:00 AM)
Low34 °F (Apr 24, 6:00 AM)13% (Apr 20, 5:00 PM)29.76 "Hg (Apr 26, 5:00 AM)
Average47 °F55%30.08 "Hg
* Reported Apr 17 8:00 PM — May 2 8:00 PM, Halton Hills, Weather by CustomWeather, © 2016

Note: Actual official high and low records may vary slightly from our data, if they occured in-between our weather recording intervals... More about our weather records

Advertising

Halton Hills Weather History for the Previous 24 Hours

Scroll right to see more
 ConditionsComfort  
Time TempWeatherWind HumidityBarometerVisibility
8:00 PM
Mon, May 2
48 °FPartly sunny.6 mph66%30.00 "Hg15 mi
7:00 PM50 °FScattered clouds.7 mph67%30.00 "Hg15 mi
6:00 PM52 °FBroken clouds.12 mph62%30.00 "Hg15 mi
5:00 PM54 °FPartly sunny.8 mph63%29.99 "Hg15 mi
4:00 PM54 °FPartly sunny.6 mph58%29.99 "Hg15 mi
3:00 PM54 °FBroken clouds.10 mph63%30.00 "Hg15 mi
2:00 PM50 °FBroken clouds.2 mph67%30.02 "Hg15 mi
1:00 PM48 °FPartly sunny.8 mph71%30.02 "Hg15 mi
12:00 PM48 °FOvercast.10 mph71%30.01 "Hg15 mi
11:00 AM46 °FSprinkles. Broken clouds.12 mph76%30.01 "Hg15 mi
10:00 AM43 °FSprinkles. Partly sunny.13 mph87%30.00 "Hg15 mi
9:00 AM43 °FSprinkles. Broken clouds.15 mph81%29.99 "Hg15 mi
8:00 AM43 °FPartly sunny.13 mph81%29.98 "Hg15 mi
7:00 AM43 °FPassing clouds.10 mph87%30.00 "Hg15 mi
6:00 AM45 °FPassing clouds.7 mph76%29.98 "Hg15 mi
5:00 AM45 °FOvercast.8 mph81%29.98 "Hg15 mi
4:00 AM45 °FPartly cloudy.8 mph87%29.98 "Hg15 mi
3:00 AM45 °FMostly cloudy.5 mph87%30.02 "Hg15 mi
2:00 AM45 °FMostly cloudy.8 mph87%30.01 "Hg15 mi
1:00 AM45 °FOvercast.9 mph87%30.02 "Hg15 mi
12:00 AM45 °FMostly cloudy.10 mph87%30.05 "Hg15 mi
11:00 PM
Sun, May 1
45 °FMostly cloudy.9 mph87%30.06 "Hg15 mi
10:00 PM45 °FMostly cloudy.13 mph93%30.06 "Hg12 mi
9:00 PM46 °FDrizzle. More clouds than sun.10 mph93%30.06 "Hg10 mi
Weather by CustomWeather, © 2016

See weather overviewHow to use our weather pages